Weather History for Bedford, MA

Change the Weather History Date:

Tuesday, October 14, 2014

  Actual Average Record
Temperature  
Mean Temperature 65 °F -  
Max Temperature 77 °F 63 °F 80 °F (2000)
Min Temperature 55 °F 40 °F 23 °F (1958)
Growing Degree Days 15 (Base 50)    
Moisture  
Dew Point 59 °F    
Average Humidity 81    
Maximum Humidity 97    
Minimum Humidity 60    
Precipitation  
Precipitation 0.00 in - - ()
Sea Level Pressure  
Sea Level Pressure 30.23 in    
Wind  
Wind Speed 6 mph (SSW)    
Max Wind Speed 20 mph    
Max Gust Speed 28 mph    
Visibility 10 miles    
Events      
Averages and records for this station are not official NWS values.
T = Trace of Precipitation, MM = Missing Value Source: NWS Daily Summary

Daily Weather History Graph

Daily Weather History Graph

Search for Another Location

Airport:

Trip Planner

Search our weather history database for the weather conditions in past years. The results will help you decide how hot, cold, wet, or windy it might be!

Date:

Astronomy

Oct. 14, 2014 Rise Set
Actual Time 6:56 AM EDT 6:04 PM EDT
Civil Twilight 6:28 AM EDT 6:32 PM EDT
Nautical Twilight 5:55 AM EDT 7:05 PM EDT
Astronomical Twilight 5:23 AM EDT 7:38 PM EDT
Moon 11:04 PM EDT (10/14) 12:59 PM EDT (10/14)
Length of Visible Light 12h 04m
Length of Day
11h 07m
Waning Gibbous, 61% of the Moon is Illuminated
Oct 14
Waning Gibbous
Oct 15
Last Quarter
Oct 23
New
Oct 30
First Quarter
Nov 6
Full

Hourly Weather History & Observations

Time (EDT) Temp. Dew Point Humidity Pressure Visibility Wind Dir Wind Speed Gust Speed Precip Events Conditions
12:56 AM 55.0 °F 52.0 °F 89% 30.28 in 10.0 mi SW 4.6 mph - N/A   Clear
1:36 AM 57.0 °F 54.0 °F 89% 30.24 in 10.0 mi SSW 3.5 mph - N/A   Mostly Cloudy
1:56 AM 57.9 °F 54.0 °F 87% 30.28 in 10.0 mi SW 3.5 mph - N/A   Overcast
2:26 AM 57.9 °F 54.0 °F 87% 30.24 in 10.0 mi SW 3.5 mph - N/A   Overcast
2:56 AM 59.0 °F 55.0 °F 87% 30.28 in 10.0 mi Calm Calm - N/A   Overcast
3:04 AM 59.0 °F 55.0 °F 87% 30.23 in 10.0 mi South 3.5 mph - N/A   Overcast
3:56 AM 57.9 °F 55.0 °F 90% 30.26 in 10.0 mi South 3.5 mph - N/A   Overcast
4:17 AM 59.0 °F 55.9 °F 90% 30.22 in 10.0 mi SSW 4.6 mph - N/A   Overcast
4:56 AM 59.0 °F 57.0 °F 93% 30.27 in 10.0 mi SSW 4.6 mph - N/A   Overcast
5:39 AM 60.1 °F 57.0 °F 90% 30.22 in 10.0 mi Calm Calm - N/A   Overcast
5:56 AM 60.1 °F 57.0 °F 90% 30.27 in 10.0 mi SSE 3.5 mph - N/A   Overcast
6:56 AM 60.1 °F 57.9 °F 93% 30.27 in 10.0 mi Calm Calm - N/A   Overcast
7:56 AM 62.1 °F 59.0 °F 90% 30.27 in 10.0 mi South 3.5 mph - N/A   Overcast
8:56 AM 64.0 °F 60.1 °F 87% 30.28 in 10.0 mi SSW 5.8 mph - N/A   Overcast
9:39 AM 66.9 °F 62.1 °F 84% 30.23 in 10.0 mi SSW 8.1 mph - N/A   Overcast
9:56 AM 68.0 °F 62.1 °F 81% 30.27 in 10.0 mi SSW 9.2 mph - N/A   Mostly Cloudy
10:56 AM 71.1 °F 63.0 °F 75% 30.26 in 10.0 mi WSW 9.2 mph - N/A   Overcast
11:56 AM 71.6 °F 62.6 °F 73% 30.21 in 10.0 mi WSW 10.4 mph - N/A   Overcast
12:56 PM 73.0 °F 63.0 °F 71% 30.23 in 10.0 mi SW 9.2 mph - N/A   Overcast
1:03 PM 73.4 °F 62.6 °F 69% 30.19 in 10.0 mi SW 12.7 mph 18.4 mph N/A   Mostly Cloudy
1:56 PM 75.9 °F 61.0 °F 60% 30.20 in 10.0 mi SSW 17.3 mph 27.6 mph N/A   Mostly Cloudy
2:56 PM 75.0 °F 61.0 °F 62% 30.20 in 10.0 mi SW 19.6 mph 27.6 mph N/A   Overcast
3:56 PM 75.0 °F 60.1 °F 60% 30.19 in 10.0 mi South 17.3 mph 24.2 mph N/A   Scattered Clouds
4:56 PM 73.4 °F 60.8 °F 65% 30.15 in 10.0 mi SSW 12.7 mph - N/A   Partly Cloudy
5:56 PM 70.0 °F 57.9 °F 65% 30.19 in 10.0 mi South 11.5 mph - N/A   Clear
6:56 PM 68.0 °F 57.9 °F 70% 30.20 in 10.0 mi South 10.4 mph - N/A   Clear
7:56 PM 66.9 °F 59.0 °F 76% 30.21 in 10.0 mi South 11.5 mph - N/A   Clear
8:56 PM 64.9 °F 60.1 °F 84% 30.19 in 10.0 mi South 9.2 mph - N/A   Clear
9:56 PM 64.0 °F 61.0 °F 90% 30.20 in 10.0 mi South 9.2 mph - N/A   Clear
10:56 PM 63.0 °F 61.0 °F 93% 30.19 in 10.0 mi South 6.9 mph - N/A   Clear
11:56 PM 63.0 °F 62.1 °F 97% 30.17 in 10.0 mi South 4.6 mph - N/A   Clear